Location: Newark
(8.3333°N, 39.1667°E)
Time: 03:56:17
(UTC+00:00)

Envisat - Visible Passes

Search period start: 14 October 2019 00:00
Search period end: 24 October 2019 00:00
Orbit: 764 x 766 km, 98.1° (Epoch: 13 October)

Date Brightness Start Highest point End Pass type
(mag) Time Alt. Az. Time Alt. Az. Time Alt. Az.
14 Oct 3.4 16:03:16 10° S 16:08:18 66° WSW 16:13:20 10° NNW visible
15 Oct 3.3 15:26:51 10° SSE 15:31:38 43° ENE 15:36:25 10° N visible
15 Oct 6.3 17:09:20 10° WSW 17:10:29 11° W 17:11:37 10° W visible
16 Oct 4.8 16:29:18 10° SSW 16:33:45 31° W 16:38:12 10° NW visible
17 Oct 3.0 15:51:59 10° SSE 15:57:03 90° SW 16:02:08 10° NNW visible
18 Oct 5.9 16:56:22 10° SW 16:59:13 15° W 17:02:06 10° WNW visible
19 Oct 4.3 16:17:43 10° S 16:22:30 42° WSW 16:27:17 10° NNW visible
20 Oct 2.9 15:40:48 10° SSE 15:45:50 67° ENE 15:50:51 10° N visible
21 Oct 5.5 16:44:15 10° SSW 16:47:58 21° W 16:51:42 10° NW visible
22 Oct 3.6 16:06:17 10° S 16:11:16 59° WSW 16:16:15 10° NNW visible
23 Oct 3.2 15:29:43 10° SSE 15:34:36 48° ENE 15:39:27 10° N visible
